Regional Weather Roundup
Issued by NWS

Home | Current Version | Previous Version | Graphics & Text | Print | Product List | Glossary On
Versions: 1 2 3 4 5 6 7 8 9 10 11 12 13 14 15 16 17 18 19 20 21 22 23 24 25 26 27 28 29 30 31 32 33 34 35 36 37 38 39 40 41 42 43 44 45 46 47 48 49 50
000
ASUS43 KMKX 270811
RWRWI

WISCONSIN REGIONAL WEATHER ROUNDUP
NATIONAL WEATHER SERVICE MILWAUKEE/SULLIVAN WI
300 AM CDT THU JUL 27 2017

NOTE: "FAIR" INDICATES FEW OR NO CLOUDS BELOW 12,000 FEET WITH NO
SIGNIFICANT WEATHER AND/OR OBSTRUCTIONS TO VISIBILITY.

WIZ001-002-006>008-014>016-023>028-270900-
NORTHWEST WISCONSIN

CITY           SKY/WX    TMP DP  RH WIND       PRES   REMARKS
SUPERIOR ARPT  NOT AVBL
ASHLAND        CLEAR     56  55  97 SW3       30.04R
HAYWARD        FOG       57  55  93 CALM      30.06S VSB 1
SIREN          CLEAR     59  58  96 CALM      30.06S
CUMBERLAND     CLEAR     63  61  94 N7        30.05S
RICE LAKE      FOG       59  58  97 CALM      30.05F VSB 1
CHETEK         CLEAR     61  61 100 CALM      30.04S
LADYSMITH      CLEAR     59  58  96 CALM      30.05F
EAU CLAIRE     CLEAR     61  60  97 CALM      30.01S FOG
MENOMONIE      CLEAR     64  62  96 CALM      30.03S
NEW RICHMOND   CLEAR     62  61  99 N3        30.04S
OSCEOLA        CLEAR     60  60 100 CALM      30.07S
$$

WIZ003>005-009-010-017-018-270900-
NORTH CENTRAL WISCONSIN

CITY           SKY/WX    TMP DP  RH WIND       PRES   REMARKS
MANITOWISH WTR CLEAR     54  54 100 CALM      30.05S
ARBOR VITAE    CLEAR     57  56  95 CALM      30.04S
WOODRUFF       CLEAR     57  56  95 CALM      30.04S
RHINELANDER    CLEAR     53  53 100 CALM      30.05S
EAGLE RIVER    CLEAR     53  53 100 CALM      30.04S
LAND O LAKES   CLEAR     52  52 100 CALM      30.06S
PHILLIPS       FOG       56  56 100 CALM      30.04S VSB 3/4
TOMAHAWK         N/A     51  50  97 CALM      30.04F FOG
MEDFORD          N/A     56  56  99 CALM      30.03S FOG
MERRILL        CLEAR     54  54 100 CALM      30.03F
$$

WIZ029-030-035-036-043>047-270900-
CENTRAL WISCONSIN

CITY           SKY/WX    TMP DP  RH WIND       PRES   REMARKS
WAUSAU         CLEAR     61  61 100 CALM      30.00S
MOSINEE        CLEAR     63  61  94 N7        30.02S
MARSHFIELD     CLEAR     64  59  83 N6        30.00F
STEVENS POINT  CLEAR     61  61 100 N3        30.00S
WAUPACA        PTCLDY    67  67  97 N5        29.98S
WAUTOMA        CLEAR     66  66 100 N3        29.97F
WISC RAPIDS    CLEAR     63  63 100 NE7       30.00S
CAMP DOUGLAS   CLEAR     64  64 100 W5        29.98S FOG
$$

WIZ011>013-019>022-031-037>040-048>050-270900-
NORTHEAST WISCONSIN

CITY           SKY/WX    TMP DP  RH WIND       PRES   REMARKS
ANTIGO         CLEAR     55  55 100 CALM      30.03S FOG
SHAWANO        PTCLDY    67  63  86 NE6       29.98S
OCONTO         CLEAR     63  62  96 CALM      29.96F
STURGEON BAY     N/A     68  57  68 NE6       29.97S
GREEN BAY      PTCLDY    68  68 100 N8        29.96S
MANITOWOC      PTCLDY    68  67  96 N3        29.95S FOG
APPLETON       CLEAR     68  68 100 N9        29.95S
CLINTONVILLE   CLEAR    N/A N/A N/A N3        29.98S
OSHKOSH        CLEAR     71  69  93 NW6       29.95F
$$

WIZ032>034-041-042-053>061-270900-
SOUTHWEST WISCONSIN

CITY           SKY/WX    TMP DP  RH WIND       PRES   REMARKS
LA CROSSE      CLEAR     70  68  93 NW6       29.98F
SPARTA         FOG       60  60 100 CALM      29.99F VSB 1
VIROQUA        CLEAR     68  68 100 CALM      30.00S
BOSCOBEL       FOG       69  68  96 CALM      29.96S VSB 1/4
PRAIRIE DU CHI CLOUDY    72  70  94 CALM      29.96S FOG
PLATTEVILLE    CLEAR     69  69 100 N6        29.96S
$$

WIZ056-057-062-063-064-067-068-270900-
SOUTH CENTRAL WISCONSIN

CITY           SKY/WX    TMP DP  RH WIND       PRES   REMARKS
REEDSBURG      FOG       67  67 100 CALM      29.97S VSB 1/4
BARABOO/DELLS  MOCLDY    67  66  96 CALM      29.97S FOG
LONE ROCK      FOG       67  67 100 CALM      29.95F VSB 3/4
MINERAL POINT  CLOUDY    70  70 100 N8        29.96S FOG
MADISON        PTCLDY    68  68 100 N6        29.94S FOG
MIDDLETON      MOCLDY    66  66 100 CALM      29.95F VSB 1/2
WATERTOWN      CLEAR     68  68 100 CALM      29.94F FOG
MONROE         FOG       70  70 100 N8        29.94F VSB 1/2
JANESVILLE     CLOUDY    70  70 100 CALM      29.93S FOG
$$

WIZ051-052-058>065-066-070>072-270900-
SOUTHEAST WISCONSIN

CITY           SKY/WX    TMP DP  RH WIND       PRES   REMARKS
MILWAUKEE      CLOUDY    72  70  93 NE6       29.93F
WAUKESHA       CLOUDY    68  68 100 CALM      29.95S
MILWAUKEE/TIMM MOCLDY    70  64  83 CALM      29.94F FOG
RACINE         MOCLDY    71  70  96 N9        29.95S FOG
KENOSHA        CLOUDY    72  68  87 N6        29.93F
FOND DU LAC    FOG       66  63  90 CALM      29.95S VSB 1/4
SHEBOYGAN      FOG       66  66 100 CALM      29.94F VSB 1/4
WEST BEND      CLEAR     68  68 100 N3        29.95S FOG
JUNEAU         CLOUDY    67  67  99 CALM      29.96S FOG
$$

LSZ147-162-270900-
LAKE SUPERIOR

STATION/POSITION TIME  TEMP    WIND        PRES    WAVE
                       AIR SEA DIR/SP/G            HT/PER
                 (UTC) (F)     (DEG/KT/KT) (MB)    (FT/S)
W MID LAKE BUOY  0750   59 52  320/  6/  8 1016.2R   0
DEVILS ISLAND    0800   66     290/  7/  7 1016.8R
SAXON HARBOR     0740   60     190/  3/  5 1016.3S
$$

LMZ867-665-643>646-270900-
LAKE MICHIGAN

STATION/POSITION TIME  TEMP    WIND        PRES    WAVE
                       AIR SEA DIR/SP/G            HT/PER
                 (UTC) (F)     (DEG/KT/KT) (MB)    (FT/S)
CHAMBERS ISLAND  0740   69     340/  6/  7 1013.9F
S GREEN BAY BUOY 0730   71 71   20/  8/ 10 1014.3F
N MID LAKE BUOY  0750   66 65  270/  2/  4 1015.0F   2/ 5
NORTHPORT PIER   0740   64        CALM     1014.9R
KEWAUNEE LAKESHO 0748   70     360/  3/  7 1013.3F
SHEBOYGAN LAKESH 0800   71     290/  5/  6 1013.3F
PORT WASHINGTON  0740   70      10/  3/  5 1014.2F
ATWATER BUOY     0709   70 68  350/  6/  6 1013.7F
MILWAUKEE LAKESH 0750   71      30/  6/  7   N/A
S MID LAKE BUOY  0750   72 70  240/  4/  4 1013.1S   1
KENOSHA   LAKESH 0800   73     360/  9/ 10 1013.2
$$

TC  - TEMPERATURE IN CELSIUS
VSB - VISIBILITY IN STATUTE MILES
WCI - WIND CHILL INDEX
HX  - HEAT INDEX




USA.gov is the U.S. government's official web portal to all federal, state and local government web resources and services.